TimeEST,TemperatureF,Dew PointF,Humidity,Sea Level PressureIn,VisibilityMPH,Wind Direction,Wind SpeedMPH,Gust SpeedMPH,PrecipitationIn,Events,Conditions,WindDirDegrees,DateUTC
12:54 AM,50.0,30.9,48,29.95,10.0,West,9.2,-,N/A,,Clear,280,2013-01-22 05:54:00
1:54 AM,48.0,27.0,44,29.96,10.0,WNW,9.2,-,N/A,,Clear,300,2013-01-22 06:54:00
2:54 AM,46.9,21.0,36,29.98,10.0,NW,11.5,-,N/A,,Clear,320,2013-01-22 07:54:00
3:54 AM,46.0,19.9,35,29.99,10.0,NW,9.2,-,N/A,,Clear,310,2013-01-22 08:54:00
4:54 AM,44.1,19.9,38,30.02,10.0,WNW,8.1,-,N/A,,Clear,300,2013-01-22 09:54:00
5:54 AM,42.1,19.0,40,30.04,10.0,NNW,11.5,18.4,N/A,,Clear,340,2013-01-22 10:54:00
6:54 AM,39.9,15.1,36,30.10,10.0,North,16.1,-,N/A,,Clear,360,2013-01-22 11:54:00
7:54 AM,39.0,15.1,38,30.12,10.0,North,18.4,24.2,N/A,,Scattered Clouds,10,2013-01-22 12:54:00
8:54 AM,39.0,10.9,32,30.16,10.0,North,12.7,20.7,N/A,,Partly Cloudy,350,2013-01-22 13:54:00
9:54 AM,39.9,10.9,31,30.19,10.0,NNW,18.4,21.9,N/A,,Partly Cloudy,340,2013-01-22 14:54:00
10:54 AM,42.1,10.9,28,30.19,10.0,North,16.1,21.9,N/A,,Partly Cloudy,350,2013-01-22 15:54:00
11:54 AM,42.1,10.9,28,30.17,10.0,NNW,16.1,20.7,N/A,,Partly Cloudy,340,2013-01-22 16:54:00
12:54 PM,44.1,9.0,24,30.16,10.0,NNW,16.1,-,N/A,,Clear,340,2013-01-22 17:54:00
1:54 PM,44.1,9.0,24,30.14,10.0,North,15.0,21.9,N/A,,Partly Cloudy,360,2013-01-22 18:54:00
2:54 PM,44.1,3.9,19,30.14,10.0,WNW,9.2,19.6,N/A,,Partly Cloudy,300,2013-01-22 19:54:00
3:54 PM,43.0,3.0,19,30.15,10.0,WNW,15.0,-,N/A,,Clear,290,2013-01-22 20:54:00
4:54 PM,41.0,3.0,21,30.18,10.0,NW,12.7,-,N/A,,Clear,320,2013-01-22 21:54:00
5:54 PM,37.9,5.0,25,30.21,10.0,NNW,4.6,-,N/A,,Clear,330,2013-01-22 22:54:00
6:54 PM,37.0,7.0,29,30.23,10.0,North,5.8,-,N/A,,Clear,10,2013-01-22 23:54:00
7:54 PM,35.1,5.0,28,30.25,10.0,NNE,8.1,-,N/A,,Clear,20,2013-01-23 00:54:00
8:54 PM,34.0,3.0,27,30.25,10.0,North,6.9,-,N/A,,Clear,10,2013-01-23 01:54:00
9:54 PM,33.1,3.9,29,30.26,10.0,NNE,5.8,-,N/A,,Clear,20,2013-01-23 02:54:00
10:54 PM,32.0,7.0,35,30.26,10.0,NE,3.5,-,N/A,,Clear,40,2013-01-23 03:54:00
11:54 PM,30.9,8.1,38,30.28,10.0,NNE,6.9,-,N/A,,Clear,20,2013-01-23 04:54:00